Tillamook, OR

9:58 PM PDT on August 31, 2016 (GMT -0700)
Tillamook

Weather History for KTMK - August, 2014

Change the Weather History Date:

Thursday, August 28, 2014

  Actual Average (KMMV) Record (KMMV)
Temperature  
Mean Temperature 62 °F 65 °F  
Max Temperature 73 °F 81 °F 103 °F (1923)
Min Temperature 51 °F 50 °F 36 °F (1937)
Degree Days  
Heating Degree Days 3 2  
Month to date heating degree days 33  
Since 1 July heating degree days 77  
Cooling Degree Days 0 2  
Month to date cooling degree days 75  
Year to date cooling degree days 175  
Growing Degree Days 12 (Base 50)    
Moisture  
Dew Point 58 °F    
Average Humidity 87    
Maximum Humidity 100    
Minimum Humidity 61    
Precipitation  
Precipitation 0.00 in 0.03 in 0.55 in (1983)
Month to date precipitation 0.50  
Year to date precipitation 22.25  
Sea Level Pressure  
Sea Level Pressure 30.12 in    
Wind  
Wind Speed 2 mph (West)    
Max Wind Speed 15 mph    
Max Gust Speed 20 mph    
Visibility 8 miles    
Events      
T = Trace of Precipitation, MM = Missing Value Source: NWS Daily Summary

Daily Weather History Graph

Daily Weather History Graph

Search for Another Location

Airport or City:

Trip Planner

Search our weather history database for the weather conditions in past years. The results will help you decide how hot, cold, wet, or windy it might be!

Date:

Astronomy

Aug. 28, 2014 Rise Set
Actual Time 7:32 AM MDT 8:59 PM MDT
Civil Twilight 7:01 AM MDT 9:30 PM MDT
Nautical Twilight 6:23 AM MDT 10:07 PM MDT
Astronomical Twilight 5:43 AM MDT 10:47 PM MDT
Moon 10:40 AM MDT (8/28) 10:15 PM MDT (8/28)
Length of Visible Light 14h 29m
Length of Day
13h 27m
Waxing Crescent, 9% of the Moon is Illuminated
Aug 28
Waxing Crescent
Sep 2
First Quarter
Sep 8
Full
Sep 15
Last Quarter
Sep 24
New

Hourly Weather History & Observations

Time (MDT) Temp. Dew Point Humidity Pressure Visibility Wind Dir Wind Speed Gust Speed Precip Events Conditions
12:15 AM 55.4 °F 53.6 °F 94% 30.10 in 10.0 mi Calm Calm - N/A   Clear
12:35 AM 53.6 °F 53.6 °F 100% 30.11 in 10.0 mi Calm Calm - N/A   Clear
12:55 AM 55.4 °F 55.4 °F 100% 30.11 in 10.0 mi SE 3.5 mph - N/A   Clear
1:15 AM 55.4 °F 53.6 °F 94% 30.10 in 10.0 mi Calm Calm - N/A   Clear
1:35 AM 53.6 °F 53.6 °F 100% 30.10 in 10.0 mi Calm Calm - N/A   Clear
1:55 AM 51.8 °F 51.8 °F 100% 30.11 in 10.0 mi Calm Calm - N/A   Scattered Clouds
2:15 AM 53.6 °F 51.8 °F 94% 30.11 in 7.0 mi Calm Calm - N/A   Mostly Cloudy
2:35 AM 53.6 °F 53.6 °F 100% 30.11 in 10.0 mi Calm Calm - N/A   Overcast
2:55 AM 55.4 °F 53.6 °F 94% 30.11 in 10.0 mi ESE 3.5 mph - N/A   Overcast
3:15 AM 53.6 °F 53.6 °F 100% 30.12 in 10.0 mi Calm Calm - N/A   Overcast
3:35 AM 55.4 °F 53.6 °F 94% 30.12 in 10.0 mi SE 3.5 mph - N/A   Overcast
3:55 AM 55.4 °F 55.4 °F 100% 30.12 in 10.0 mi Calm Calm - N/A   Overcast
4:15 AM 55.4 °F 55.4 °F 100% 30.12 in 10.0 mi Calm Calm - N/A   Overcast
4:35 AM 55.4 °F 55.4 °F 100% 30.12 in 7.0 mi Calm Calm - N/A   Overcast
4:55 AM 55.4 °F 55.4 °F 100% 30.12 in 7.0 mi Calm Calm - N/A   Overcast
5:15 AM 55.4 °F 55.4 °F 100% 30.12 in 7.0 mi Calm Calm - N/A   Overcast
5:35 AM 55.4 °F 55.4 °F 100% 30.13 in 7.0 mi Calm Calm - N/A   Overcast
5:55 AM 57.2 °F 55.4 °F 94% 30.13 in 7.0 mi Calm Calm - N/A   Overcast
6:15 AM 57.2 °F 55.4 °F 94% 30.13 in 7.0 mi Calm Calm - N/A   Overcast
6:35 AM 55.4 °F 55.4 °F 100% 30.13 in 5.0 mi Calm Calm - N/A   Overcast
6:55 AM 55.4 °F 55.4 °F 100% 30.13 in 1.5 mi ESE 3.5 mph - N/A   Overcast
7:15 AM 55.4 °F 55.4 °F 100% 30.13 in 1.2 mi Calm Calm - N/A   Overcast
7:35 AM 55.4 °F 55.4 °F 100% 30.14 in 2.0 mi Calm Calm - N/A   Overcast
7:55 AM 55.4 °F 55.4 °F 100% 30.14 in 2.0 mi Calm Calm - N/A   Overcast
8:15 AM 55.4 °F 55.4 °F 100% 30.15 in 2.5 mi Calm Calm - N/A   Overcast
8:35 AM 55.4 °F 55.4 °F 100% 30.15 in 1.8 mi SE 3.5 mph - N/A   Overcast
8:55 AM 55.4 °F 55.4 °F 100% 30.15 in 1.0 mi SSE 3.5 mph - N/A   Overcast
9:15 AM 55.4 °F 55.4 °F 100% 30.15 in 1.2 mi Calm Calm - N/A   Overcast
9:35 AM 55.4 °F 55.4 °F 100% 30.16 in 1.5 mi Calm Calm - N/A   Overcast
9:55 AM 57.2 °F 57.2 °F 100% 30.15 in 3.0 mi Calm Calm - N/A   Overcast
10:15 AM 57.2 °F 57.2 °F 100% 30.15 in 7.0 mi Calm Calm - N/A   Overcast
10:35 AM 59.0 °F 57.2 °F 94% 30.15 in 10.0 mi Calm Calm - N/A   Overcast
10:55 AM 59.0 °F 59.0 °F 100% 30.15 in 10.0 mi Calm Calm - N/A   Overcast
11:15 AM 60.8 °F 59.0 °F 94% 30.15 in 10.0 mi Calm Calm - N/A   Overcast
11:35 AM 62.6 °F 59.0 °F 88% 30.14 in 10.0 mi Calm Calm - N/A   Scattered Clouds
11:55 AM 66.2 °F 59.0 °F 78% 30.14 in 10.0 mi Calm Calm - N/A   Clear
12:15 PM 68.0 °F 59.0 °F 73% 30.14 in 10.0 mi Calm Calm - N/A   Clear
12:35 PM 69.8 °F 59.0 °F 68% 30.14 in 10.0 mi Calm Calm - N/A   Clear
12:55 PM 69.8 °F 59.0 °F 68% 30.14 in 10.0 mi NW 3.5 mph - N/A   Clear
1:15 PM 71.6 °F 59.0 °F 64% 30.14 in 10.0 mi NW 4.6 mph - N/A   Clear
1:35 PM 71.6 °F 59.0 °F 64% 30.13 in 10.0 mi NW 6.9 mph - N/A   Clear
1:55 PM 73.4 °F 60.8 °F 65% 30.13 in 10.0 mi NNW 9.2 mph - N/A   Clear
2:15 PM 73.4 °F 59.0 °F 61% 30.13 in 10.0 mi NNW 12.7 mph - N/A   Clear
2:35 PM 73.4 °F 59.0 °F 61% 30.12 in 10.0 mi NW 10.4 mph - N/A   Clear
2:55 PM 73.4 °F 60.8 °F 65% 30.13 in 10.0 mi NW 15.0 mph - N/A   Clear
3:15 PM 73.4 °F 60.8 °F 65% 30.13 in 10.0 mi NW 11.5 mph 18.4 mph N/A   Clear
3:35 PM 73.4 °F 59.0 °F 61% 30.12 in 10.0 mi NNW 5.8 mph - N/A   Clear
3:55 PM 73.4 °F 60.8 °F 65% 30.11 in 10.0 mi NW 6.9 mph - N/A   Clear
4:15 PM 73.4 °F 60.8 °F 65% 30.11 in 10.0 mi West 6.9 mph - N/A   Clear
4:35 PM 73.4 °F 60.8 °F 65% 30.11 in 10.0 mi West 8.1 mph - N/A   Clear
4:55 PM 73.4 °F 60.8 °F 65% 30.11 in 10.0 mi NW 11.5 mph - N/A   Clear
5:15 PM 71.6 °F 60.8 °F 69% 30.10 in 10.0 mi WNW 10.4 mph 19.6 mph N/A   Clear
5:35 PM 71.6 °F 60.8 °F 69% 30.10 in 10.0 mi West 4.6 mph - N/A   Scattered Clouds
5:55 PM 71.6 °F 60.8 °F 69% 30.10 in 10.0 mi West 6.9 mph - N/A   Scattered Clouds
6:15 PM 69.8 °F 60.8 °F 73% 30.09 in 10.0 mi West 6.9 mph - N/A   Mostly Cloudy
6:35 PM 69.8 °F 60.8 °F 73% 30.09 in 10.0 mi SW 5.8 mph - N/A   Mostly Cloudy
6:55 PM 69.8 °F 60.8 °F 73% 30.09 in 10.0 mi SW 4.6 mph - N/A   Mostly Cloudy
7:15 PM 69.8 °F 60.8 °F 73% 30.09 in 10.0 mi WNW 6.9 mph - N/A   Scattered Clouds
7:35 PM 69.8 °F 60.8 °F 73% 30.09 in 10.0 mi NW 9.2 mph - N/A   Clear
7:55 PM 68.0 °F 60.8 °F 78% 30.08 in 10.0 mi WSW 5.8 mph - N/A   Mostly Cloudy
8:15 PM 66.2 °F 60.8 °F 83% 30.08 in 10.0 mi WSW 4.6 mph - N/A   Mostly Cloudy
8:35 PM 64.4 °F 60.8 °F 88% 30.08 in 10.0 mi SW 4.6 mph - N/A   Mostly Cloudy
8:55 PM 64.4 °F 60.8 °F 88% 30.08 in 10.0 mi SW 3.5 mph - N/A   Overcast
9:15 PM 62.6 °F 62.6 °F 100% 30.08 in 10.0 mi Calm Calm - N/A   Overcast
9:35 PM 62.6 °F 62.6 °F 100% 30.08 in 10.0 mi Calm Calm - N/A   Overcast
9:55 PM 64.4 °F 62.6 °F 94% 30.09 in 10.0 mi WNW 9.2 mph - N/A   Overcast
10:15 PM 62.6 °F 62.6 °F 100% 30.09 in 10.0 mi WNW 5.8 mph - N/A   Overcast
10:35 PM 64.4 °F 62.6 °F 94% 30.09 in 10.0 mi West 6.9 mph - N/A   Overcast
10:55 PM 62.6 °F 62.6 °F 100% 30.08 in 10.0 mi WNW 3.5 mph - N/A   Overcast
11:15 PM 62.6 °F 62.6 °F 100% 30.08 in 10.0 mi Calm Calm - N/A   Overcast
11:35 PM 62.6 °F 62.6 °F 100% 30.07 in 10.0 mi Calm Calm - N/A   Overcast
11:55 PM 62.6 °F 62.6 °F 100% 30.07 in 10.0 mi Calm Calm - N/A   Overcast